Погода в Ла-Пасе

Боливия     16°29′09″S   68°09′57″W
темп.,
°C
ветер,
м/с
пор.,
м/с
влажн.,
%
обл.,
%
осадки,
мм/ч
давл.,
гПа
погр.,
м
26 января, вт
вт2623:00+7ю1284100 0.3 1015130
02:00+6юв2389100 2.2 1015259
05:00+5всв1282100 0.4 1014109
08:00+7зсз0167100 0.4 1017302
11:00+11ююз225158 0.0 10141391
14:00+13з444972 0.5 10101468
17:00+14зсз244576 0.3 10071588
20:00+11ююз145672 0.4 1012199
27 января, ср
ср2723:00+6ю135554 0.1 101674
02:00+4ссв016042 0.1 101622
05:00+3ю016487 0.0 101622
08:00+6ю114793 0.0 1017218
11:00+12ююз224180 0.0 10141296
14:00+15зюз433340 0.0 10092166
17:00+15зсз54280 0.1 10061933
20:00+8св45696 0.1 1010114
28 января, чт
чт2823:00+6ссв227552 0.0 101539
02:00+5вюв117836 0.1 101422
05:00+4вюв128843 0.0 101328
08:00+7ююв117664 0.0 1014316
11:00+12зюз344712 0.0 10111537
14:00+15зсз554238 0.5 10071939
17:00+15зсз543034 0.1 10051658
20:00+5ю8127536 0.9 1010427
29 января, пт
пт2923:00+6юв016599 0.4 101467
02:00+4юз126081 0.4 101422
05:00+2ю015862 0.0 101422
08:00+6ююз224339 0.0 1015267
11:00+11юз333517 0.0 10131340
14:00+14юз35289 0.0 10092492
17:00+14з442924 0.0 10062164
20:00+8св024818 0.0 101024
30 января, сб
сб3023:00+6ю126836 0.0 101424
02:00+5в128156 0.0 101425
05:00+3вюв1288100 0.0 101424
08:00+7ююз116293 0.0 1015312
11:00+12ю224294 0.0 10131324
14:00+15ююв323597 0.1 10092165
17:00+13всв655268 0.8 1007994
20:00+8св567756 1.1 1011211